Location: Unspecified
(47.9110°N, 14.3980°E)
Time: 16:27:05
(UTC+00:00)

Cosmos 1805 Rocket - Pass Details

Date: 06 August 2020
Orbit: 605 x 631 km, 82.5° (Epoch: 25 September)

Event Time Altitude Azimuth Distance (km) Brightness Sun altitude
Rises 19:57:30 0° 194° (SSW) 2,887 6.7 -12.9°
Reaches altitude 10° 19:59:43 10° 196° (SSW) 1,990 5.9 -13.2°
Maximum altitude 20:04:07 71° 281° (W) 667 3.9 -13.7°
Drops below altitude 10° 20:08:35 10° 5° (N) 2,019 6.8 -14.2°
Sets 20:10:51 0° 8° (N) 2,933 7.6 -14.5°
